TimeCST,TemperatureF,Dew PointF,Humidity,Sea Level PressureIn,VisibilityMPH,Wind Direction,Wind SpeedMPH,Gust SpeedMPH,PrecipitationIn,Events,Conditions,WindDirDegrees,DateUTC
12:15 AM,-0.4,-13.0,55,30.13,10.0,WSW,6.9,-,N/A,,Clear,240,2014-01-29 06:15:00
12:35 AM,-2.2,-11.2,66,30.12,10.0,WSW,4.6,-,N/A,,Clear,240,2014-01-29 06:35:00
12:55 AM,-2.2,-13.0,60,30.12,10.0,SW,5.8,-,N/A,,Clear,230,2014-01-29 06:55:00
1:15 AM,-4.0,-14.8,60,30.11,10.0,SW,8.1,-,N/A,,Clear,230,2014-01-29 07:15:00
1:35 AM,-2.2,-11.2,66,30.10,10.0,SW,8.1,-,N/A,,Clear,230,2014-01-29 07:35:00
1:55 AM,-2.2,-14.8,55,30.10,10.0,SW,9.2,-,N/A,,Clear,220,2014-01-29 07:55:00
2:15 AM,-2.2,-14.8,55,30.10,10.0,SW,10.4,-,N/A,,Clear,230,2014-01-29 08:15:00
2:35 AM,-0.4,-13.0,55,30.10,10.0,SW,9.2,-,N/A,,Clear,230,2014-01-29 08:35:00
2:55 AM,-0.4,-11.2,60,30.09,10.0,SW,10.4,-,N/A,,Clear,230,2014-01-29 08:55:00
3:15 AM,-0.4,-13.0,55,30.09,10.0,SW,9.2,-,N/A,,Clear,220,2014-01-29 09:15:00
3:35 AM,-0.4,-11.2,60,30.08,10.0,SW,8.1,-,N/A,,Clear,230,2014-01-29 09:35:00
3:55 AM,1.4,-11.2,56,30.07,10.0,SW,9.2,-,N/A,,Clear,230,2014-01-29 09:55:00
4:15 AM,1.4,-9999,N/A,30.06,10.0,SW,9.2,-,N/A,,Clear,230,2014-01-29 10:15:00
4:35 AM,1.4,-11.2,56,30.05,10.0,SW,11.5,-,N/A,,Clear,230,2014-01-29 10:35:00
4:55 AM,1.4,-11.2,56,30.05,10.0,SW,10.4,-,N/A,,Clear,230,2014-01-29 10:55:00
5:15 AM,1.4,-9.4,61,30.04,10.0,SW,10.4,-,N/A,,Clear,230,2014-01-29 11:15:00
5:35 AM,1.4,-11.2,56,30.03,10.0,SW,10.4,-,N/A,,Clear,230,2014-01-29 11:35:00
5:55 AM,1.4,-11.2,56,30.02,10.0,SW,10.4,-,N/A,,Clear,220,2014-01-29 11:55:00
6:15 AM,1.4,-11.2,56,30.00,10.0,SSW,11.5,-,N/A,,Clear,210,2014-01-29 12:15:00
6:35 AM,1.4,-11.2,56,29.99,10.0,SSW,9.2,-,N/A,,Clear,210,2014-01-29 12:35:00
6:55 AM,1.4,-11.2,56,30.00,10.0,SW,8.1,-,N/A,,Clear,220,2014-01-29 12:55:00
7:15 AM,1.4,-11.2,56,30.00,10.0,SSW,10.4,-,N/A,,Clear,210,2014-01-29 13:15:00
7:35 AM,1.4,-9.4,61,29.99,10.0,SSW,9.2,-,N/A,,Clear,210,2014-01-29 13:35:00
7:55 AM,1.4,-9.4,61,29.97,10.0,SSW,10.4,-,N/A,,Clear,200,2014-01-29 13:55:00
8:15 AM,3.2,-9.4,56,29.96,10.0,South,11.5,-,N/A,,Clear,190,2014-01-29 14:15:00
8:35 AM,3.2,-5.8,66,29.98,10.0,SSW,9.2,-,N/A,,Clear,200,2014-01-29 14:35:00
8:55 AM,3.2,-7.6,61,29.97,10.0,SSW,10.4,-,N/A,,Clear,200,2014-01-29 14:55:00
9:15 AM,6.8,-5.8,56,29.96,10.0,South,10.4,-,N/A,,Clear,180,2014-01-29 15:15:00
9:35 AM,8.6,-4.0,57,29.95,10.0,SSW,11.5,-,N/A,,Clear,200,2014-01-29 15:35:00
9:55 AM,10.4,-2.2,57,29.94,10.0,SSW,12.7,-,N/A,,Clear,200,2014-01-29 15:55:00
10:15 AM,14.0,-0.4,53,29.94,10.0,SSW,13.8,-,N/A,,Clear,200,2014-01-29 16:15:00
10:35 AM,15.8,1.4,53,29.93,10.0,SSW,13.8,-,N/A,,Clear,200,2014-01-29 16:35:00
10:55 AM,19.4,3.2,49,29.92,10.0,SSW,16.1,-,N/A,,Clear,200,2014-01-29 16:55:00
11:15 AM,21.2,5.0,50,29.90,10.0,SSW,16.1,-,N/A,,Clear,200,2014-01-29 17:15:00
11:35 AM,24.8,-9.4,22,29.89,10.0,South,17.3,-,N/A,,Clear,190,2014-01-29 17:35:00
11:55 AM,26.6,-4.0,26,29.87,10.0,SSW,20.7,27.6,N/A,,Clear,200,2014-01-29 17:55:00
12:15 PM,26.6,-2.2,29,29.85,10.0,SSW,18.4,26.5,N/A,,Clear,200,2014-01-29 18:15:00
12:35 PM,28.4,-2.2,27,29.82,10.0,SSW,25.3,31.1,N/A,,Clear,200,2014-01-29 18:35:00
12:55 PM,30.2,-2.2,25,29.80,10.0,South,23.0,29.9,N/A,,Clear,190,2014-01-29 18:55:00
1:15 PM,30.2,1.4,29,29.79,10.0,South,23.0,-,N/A,,Clear,190,2014-01-29 19:15:00
1:35 PM,32.0,-5.8,20,29.77,10.0,South,23.0,28.8,N/A,,Clear,190,2014-01-29 19:35:00
1:55 PM,33.8,1.4,25,29.75,10.0,South,24.2,29.9,N/A,,Clear,190,2014-01-29 19:55:00
2:15 PM,33.8,5.0,30,29.73,10.0,South,21.9,-,N/A,,Clear,190,2014-01-29 20:15:00
2:35 PM,35.6,6.8,30,29.71,10.0,South,25.3,31.1,N/A,,Clear,190,2014-01-29 20:35:00
2:55 PM,35.6,8.6,33,29.70,10.0,SSW,24.2,31.1,N/A,,Clear,200,2014-01-29 20:55:00
3:15 PM,35.6,10.4,35,29.69,10.0,SSW,25.3,32.2,N/A,,Clear,200,2014-01-29 21:15:00
3:35 PM,37.4,10.4,33,29.68,10.0,SSW,21.9,31.1,N/A,,Clear,200,2014-01-29 21:35:00
3:55 PM,37.4,10.4,33,29.68,10.0,SSW,19.6,28.8,N/A,,Clear,200,2014-01-29 21:55:00
4:15 PM,37.4,12.2,36,29.67,10.0,South,20.7,25.3,N/A,,Clear,190,2014-01-29 22:15:00
4:35 PM,37.4,12.2,36,29.67,10.0,SSW,18.4,25.3,N/A,,Scattered Clouds,200,2014-01-29 22:35:00
4:55 PM,37.4,12.2,36,29.66,10.0,SSW,17.3,-,N/A,,Overcast,200,2014-01-29 22:55:00
5:15 PM,35.6,12.2,38,29.65,10.0,SSW,17.3,24.2,N/A,,Overcast,200,2014-01-29 23:15:00
5:35 PM,35.6,12.2,38,29.65,10.0,SSW,19.6,-,N/A,,Overcast,200,2014-01-29 23:35:00
5:55 PM,35.6,12.2,38,29.64,10.0,South,19.6,-,N/A,,Overcast,190,2014-01-29 23:55:00
6:15 PM,33.8,14.0,44,29.64,10.0,South,17.3,23.0,N/A,,Overcast,190,2014-01-30 00:15:00
6:35 PM,32.0,15.8,51,29.64,10.0,South,16.1,-,N/A,,Mostly Cloudy,190,2014-01-30 00:35:00
6:55 PM,30.2,14.0,51,29.63,10.0,South,17.3,-,N/A,,Partly Cloudy,180,2014-01-30 00:55:00
7:15 PM,30.2,14.0,51,29.63,10.0,South,15.0,-,N/A,,Clear,180,2014-01-30 01:15:00
7:35 PM,28.4,14.0,55,29.63,10.0,South,15.0,-,N/A,,Scattered Clouds,190,2014-01-30 01:35:00
7:55 PM,30.2,15.8,55,29.63,10.0,South,15.0,-,N/A,,Partly Cloudy,190,2014-01-30 01:55:00
8:15 PM,30.2,14.0,51,29.62,10.0,South,16.1,-,N/A,,Clear,190,2014-01-30 02:15:00
8:35 PM,28.4,14.0,55,29.61,10.0,South,15.0,-,N/A,,Mostly Cloudy,190,2014-01-30 02:35:00
8:55 PM,30.2,14.0,51,29.60,10.0,SSW,17.3,-,N/A,,Mostly Cloudy,200,2014-01-30 02:55:00
9:15 PM,28.4,14.0,55,29.59,10.0,South,16.1,-,N/A,,Clear,190,2014-01-30 03:15:00
9:35 PM,28.4,15.8,59,29.59,10.0,South,13.8,-,N/A,,Mostly Cloudy,180,2014-01-30 03:35:00
9:55 PM,26.6,15.8,64,29.58,10.0,South,13.8,-,N/A,,Scattered Clouds,190,2014-01-30 03:55:00
10:15 PM,26.6,14.0,59,29.57,10.0,South,15.0,-,N/A,,Clear,180,2014-01-30 04:15:00
10:35 PM,26.6,14.0,59,29.57,10.0,South,13.8,-,N/A,,Clear,180,2014-01-30 04:35:00
10:55 PM,26.6,14.0,59,29.56,10.0,South,13.8,-,N/A,,Scattered Clouds,190,2014-01-30 04:55:00
11:15 PM,28.4,14.0,55,29.54,10.0,South,16.1,-,N/A,,Partly Cloudy,190,2014-01-30 05:15:00
11:35 PM,28.4,14.0,55,29.53,10.0,SSW,17.3,-,N/A,,Clear,200,2014-01-30 05:35:00
11:55 PM,28.4,14.0,55,29.52,10.0,South,17.3,-,N/A,,Clear,190,2014-01-30 05:55:00